Weather History for Wenatchee, WA

Change the Weather History Date:

Sunday, June 29, 2014

  Actual Average Record
Temperature  
Mean Temperature 58 °F 62 °F  
Max Temperature 70 °F 77 °F 102 °F (2008)
Min Temperature 46 °F 48 °F 43 °F (1964)
Degree Days  
Heating Degree Days 7 4  
Month to date heating degree days 185 182  
Since 1 June heating degree days 185 182  
Since 1 July heating degree days 7232 7133  
Cooling Degree Days 0 2  
Month to date cooling degree days 0 13  
Year to date cooling degree days 0 18  
Since 1 June cooling degree days 0 13  
Growing Degree Days 18 (Base 50)    
Moisture  
Dew Point 39 °F    
Average Humidity 36    
Maximum Humidity 50    
Minimum Humidity 23    
Precipitation  
Precipitation 0.00 in 0.03 in 0.24 in (1992)
Month to date precipitation 2.67 1.33  
Year to date precipitation 9.75 9.36  
Snow  
Snow 0.00 in 0.00 in - ()
Month to date snowfall 0.0 0.0  
Since 1 June snowfall 0.0 0.0  
Since 1 July snowfall 31.0 54.1  
Snow Depth 0.00 in    
Sea Level Pressure  
Sea Level Pressure 30.02 in    
Wind  
Wind Speed 18 mph (NW)    
Max Wind Speed 28 mph    
Max Gust Speed 34 mph    
Visibility 10 miles    
Events      
T = Trace of Precipitation, MM = Missing Value Source: NWS Daily Summary

Daily Weather History Graph

Daily Weather History Graph

Search for Another Location

Airport:

Trip Planner

Search our weather history database for the weather conditions in past years. The results will help you decide how hot, cold, wet, or windy it might be!

Date:

Astronomy

Jun. 29, 2014 Rise Set
Actual Time 5:06 AM PDT 9:01 PM PDT
Civil Twilight 4:26 AM PDT 9:41 PM PDT
Nautical Twilight 3:31 AM PDT 10:36 PM PDT
Astronomical Twilight 2:06 AM PDT 12:00 AM PDT
Moon 7:41 AM PDT (6/29) 10:10 PM PDT (6/29)
Length of Visible Light 17h 14m
Length of Day
15h 54m
Waxing Crescent, 6% of the Moon is Illuminated
Jun 29
Waxing Crescent
Jul 5
First Quarter
Jul 12
Full
Jul 18
Last Quarter
Jul 26
New

Hourly Weather History & Observations

Time (PDT) Temp. Dew Point Humidity Pressure Visibility Wind Dir Wind Speed Gust Speed Precip Events Conditions
12:55 AM 63.0 °F 43.0 °F 48% 29.92 in 10.0 mi NW 15.0 mph - N/A   Clear
1:55 AM 62.1 °F 43.0 °F 50% 29.93 in 10.0 mi NW 16.1 mph - N/A   Clear
2:55 AM 61.0 °F 41.0 °F 48% 29.94 in 10.0 mi NW 18.4 mph - N/A   Clear
3:55 AM 61.0 °F 41.0 °F 48% 29.96 in 10.0 mi NW 12.7 mph - N/A   Clear
4:55 AM 60.1 °F 41.0 °F 49% 29.97 in 10.0 mi NW 17.3 mph - N/A   Clear
5:55 AM 60.1 °F 41.0 °F 49% 29.99 in 10.0 mi NW 13.8 mph - N/A   Clear
6:55 AM 62.1 °F 41.0 °F 46% 30.00 in 10.0 mi NNW 13.8 mph - N/A   Clear
7:55 AM 64.9 °F 39.0 °F 39% 30.01 in 10.0 mi NW 15.0 mph - N/A   Clear
8:55 AM 66.9 °F 39.0 °F 36% 30.02 in 10.0 mi NW 18.4 mph - N/A   Clear
9:55 AM 70.0 °F 37.9 °F 31% 30.01 in 10.0 mi NW 16.1 mph - N/A   Clear
10:55 AM 72.0 °F 37.0 °F 28% 30.02 in 10.0 mi WNW 20.7 mph 25.3 mph N/A   Clear
11:55 AM 73.9 °F 36.0 °F 25% 30.02 in 10.0 mi NW 19.6 mph 33.4 mph N/A   Clear
12:55 PM 75.0 °F 36.0 °F 24% 30.02 in 10.0 mi WNW 23.0 mph 29.9 mph N/A   Partly Cloudy
1:55 PM 75.0 °F 36.0 °F 24% 30.02 in 10.0 mi NW 26.5 mph 32.2 mph N/A   Clear
2:55 PM 75.9 °F 36.0 °F 23% 30.02 in 10.0 mi NW 24.2 mph 33.4 mph N/A   Clear
3:55 PM 75.9 °F 36.0 °F 23% 30.03 in 10.0 mi WNW 24.2 mph - N/A   Clear
4:55 PM 75.9 °F 37.0 °F 24% 30.03 in 10.0 mi WNW 27.6 mph - N/A   Clear
5:55 PM 73.9 °F 37.9 °F 27% 30.04 in 10.0 mi WNW 26.5 mph 33.4 mph N/A   Clear
6:55 PM 72.0 °F 37.0 °F 28% 30.06 in 10.0 mi WNW 27.6 mph 33.4 mph N/A   Clear
7:55 PM 70.0 °F 37.9 °F 31% 30.07 in 10.0 mi WNW 25.3 mph 34.5 mph N/A   Clear
8:55 PM 66.9 °F 39.0 °F 36% 30.09 in 10.0 mi WNW 20.7 mph 28.8 mph N/A   Clear
9:55 PM 66.0 °F 39.0 °F 37% 30.12 in 10.0 mi WNW 18.4 mph 25.3 mph N/A   Clear
10:55 PM 64.0 °F 39.9 °F 41% 30.13 in 10.0 mi WNW 13.8 mph - N/A   Clear
11:55 PM 63.0 °F 39.9 °F 43% 30.13 in 10.0 mi WNW 9.2 mph - N/A   Clear